Location: Kumla
(59.1265°N, 15.1401°E)
Time: 01:49:01
(UTC+01:00)

Vanguard 1 - Pass Details

Date: 10 December 2023
Orbit: 653 x 3825 km, 34.3° (Epoch: 03 March)

Event Time Altitude Azimuth Distance (km) Brightness Sun altitude
Rises 21:54:28 0° 265° (W) 6,753 14.7 -48.3°
Reaches altitude 10° 22:00:09 10° 252° (WSW) 6,172 14.2 -48.7°
Enters shadow 22:13:28 22° 211° (SSW) 5,798 13.7 -49.8°
Maximum altitude 22:13:34 22° 211° (SSW) 5,800 - -49.8°
Drops below altitude 10° 22:28:31 10° 171° (S) 6,857 - -50.9°
Sets 22:35:32 0° 158° (SSE) 7,662 - -51.3°
